QPF
0.08 0.09 0.07 0.07 0.07 0.07 0.08 0.09 0.09 0.08 0.06 0.04 0.03 0.01 0.01 0.01 0.02 0.02 0.03 0.04 0.03 0.03 0.03 0.03 0.04 0.04 0.04 0.04 0.04 0.04 0.05 0.04 0.04 0.04 0.04 0.04 0.05 0.05
0.08 0.09 0.08 0.08 0.09 0.08 0.08 0.09 0.11 0.11 0.07 0.04 0.04 0.03 0.03 0.03 0.04 0.03 0.03 0.03 0.03 0.03 0.03 0.03 0.03 0.04 0.04 0.04 0.04 0.03 0.04 0.04 0.05 0.05 0.05 0.04 0.04 0.03
0.08 0.08 0.08 0.10 0.09 0.09 0.08 0.07 0.09 0.10 0.08 0.06 0.05 0.05 0.06 0.05 0.05 0.05 0.05 0.05 0.04 0.04 0.03 0.03 0.03 0.03 0.03 0.03 0.03 0.04 0.04 0.05 0.05 0.06 0.06 0.06 0.05 0.04
0.07 0.09 0.08 0.11 0.11 0.10 0.11 0.10 0.09 0.10 0.09 0.07 0.05 0.05 0.07 0.08 0.08 0.09 0.07 0.06 0.06 0.07 0.06 0.06 0.06 0.05 0.05 0.05 0.04 0.04 0.04 0.05 0.05 0.06 0.06 0.07 0.07 0.08
0.08 0.07 0.07 0.10 0.11 0.11 0.13 0.13 0.13 0.13 0.14 0.11 0.07 0.07 0.07 0.07 0.09 0.09 0.08 0.09 0.09 0.09 0.08 0.07 0.07 0.06 0.06 0.06 0.06 0.06 0.07 0.08 0.09 0.10 0.12 0.13 0.13 0.12
0.12 0.13 0.12 0.12 0.11 0.12 0.13 0.13 0.14 0.15 0.16 0.16 0.14 0.12 0.12 0.11 0.12 0.11 0.10 0.11 0.10 0.08 0.08 0.07 0.06 0.06 0.07 0.07 0.07 0.08 0.08 0.09 0.08 0.08 0.09 0.10 0.11 0.10
0.12 0.12 0.12 0.12 0.13 0.14 0.14 0.14 0.15 0.15 0.14 0.15 0.16 0.17 0.16 0.14 0.15 0.16 0.17 0.17 0.16 0.15 0.15 0.13 0.12 0.10 0.10 0.10 0.09 0.08 0.07 0.06 0.06 0.06 0.07 0.07 0.07 0.08
0.11 0.12 0.11 0.10 0.10 0.10 0.10 0.11 0.13 0.15 0.17 0.20 0.22 0.23 0.22 0.22 0.22 0.22 0.22 0.21 0.20 0.18 0.16 0.15 0.12 0.10 0.08 0.06 0.06 0.05 0.04 0.04 0.04 0.03 0.03 0.03 0.03 0.04
0.07 0.07 0.06 0.05 0.05 0.05 0.07 0.10 0.13 0.16 0.18 0.20 0.23 0.25 0.24 0.23 0.22 0.22 0.22 0.22 0.21 0.19 0.15 0.12 0.10 0.08 0.06 0.04 0.04 0.03 0.02 0.02 0.02 0.03 0.03 0.02 0.02 0.03
0.05 0.05 0.05 0.05 0.05 0.04 0.05 0.06 0.09 0.12 0.15 0.15 0.16 0.15 0.12 0.10 0.10 0.11 0.12 0.11 0.10 0.10 0.11 0.10 0.09 0.08 0.07 0.05 0.05 0.05 0.04 0.04 0.04 0.04 0.03 0.03 0.04 0.04
0.06 0.06 0.06 0.05 0.05 0.04 0.04 0.05 0.06 0.07 0.08 0.07 0.06 0.07 0.07 0.07 0.06 0.06 0.07 0.06 0.06 0.05 0.06 0.07 0.06 0.05 0.05 0.05 0.05 0.05 0.04 0.04 0.03 0.03 0.03 0.04 0.04 0.04
0.07 0.06 0.07 0.06 0.06 0.06 0.04 0.05 0.06 0.06 0.05 0.04 0.05 0.06 0.06 0.07 0.08 0.06 0.04 0.04 0.04 0.04 0.04 0.04 0.04 0.04 0.04 0.04 0.04 0.05 0.05 0.06 0.06 0.06 0.05 0.04 0.04 0.04
0.08 0.08 0.08 0.08 0.08 0.08 0.06 0.05 0.05 0.05 0.05 0.06 0.07 0.07 0.07 0.06 0.04 0.03 0.03 0.03 0.04 0.04 0.03 0.03 0.03 0.04 0.05 0.06 0.07 0.08 0.09 0.09 0.09 0.09 0.09 0.07 0.06 0.05
0.08 0.08 0.09 0.09 0.08 0.07 0.07 0.07 0.06 0.05 0.05 0.06 0.05 0.04 0.03 0.02 0.02 0.02 0.02 0.02 0.03 0.03 0.03 0.03 0.04 0.04 0.06 0.08 0.09 0.10 0.10 0.10 0.11 0.11 0.11 0.10 0.09 0.08
0.08 0.09 0.08 0.08 0.07 0.05 0.04 0.03 0.03 0.03 0.03 0.04 0.03 0.02 0.01 0.01 0.02 0.02 0.03 0.03 0.03 0.03 0.02 0.02 0.03 0.04 0.05 0.07 0.08 0.09 0.08 0.08 0.08 0.09 0.09 0.09 0.09 0.08
0.05 0.05 0.05 0.04 0.04 0.03 0.02 0.02 0.02 0.02 0.02 0.02 0.02 0.01 0.01 0.00 0.00 0.01 0.02 0.02 0.03 0.03 0.03 0.02 0.02 0.03 0.03 0.04 0.05 0.06 0.05 0.05 0.05 0.05 0.06 0.07 0.07 0.06
0.02 0.02 0.02 0.02 0.01 0.01 0.01 0.02 0.02 0.02 0.01 0.01 0.01 0.01 0.01 0.01 0.00 0.00 0.00 0.01 0.01 0.02 0.02 0.02 0.02 0.02 0.02 0.02 0.03 0.03 0.03 0.03 0.03 0.03 0.04 0.04 0.05 0.04
0.02 0.02 0.01 0.01 0.01 0.01 0.02 0.02 0.02 0.02 0.02 0.02 0.01 0.01 0.01 0.01 0.00 0.00 0.00 0.00 0.01 0.01 0.01 0.01 0.01 0.02 0.02 0.02 0.01 0.02 0.02 0.02 0.02 0.02 0.02 0.03 0.04 0.05
0.02 0.01 0.01 0.01 0.01 0.02 0.02 0.03 0.02 0.02 0.01 0.01 0.01 0.01 0.01 0.00 0.00 0.01 0.01 0.01 0.00 0.00 0.00 0.01 0.01 0.02 0.02 0.03 0.02 0.01 0.01 0.01 0.01 0.01 0.02 0.02 0.03 0.03
0.01 0.01 0.00 0.00 0.01 0.01 0.01 0.01 0.01 0.01 0.00 0.00 0.00 0.00 0.01 0.01 0.00 0.00 0.00 0.01 0.01 0.00 0.00 0.01 0.01 0.01 0.01 0.02 0.02 0.01 0.01 0.01 0.02 0.02 0.03 0.03 0.03 0.02
0.00 0.00 0.00 0.00 0.00 0.00 0.00 0.01 0.01 0.01 0.01 0.01 0.01 0.01 0.01 0.01 0.00 0.00 0.00 0.00 0.00 0.00 0.00 0.00 0.00 0.00 0.01 0.01 0.02 0.02 0.02 0.01 0.01 0.01 0.02 0.02 0.02 0.02
0.00 0.00 0.00 0.00 0.00 0.00 0.01 0.01 0.01 0.01 0.01 0.01 0.01 0.01 0.00 0.00 0.00 0.00 0.00 0.00 0.00 0.00 0.00 0.00 0.00 0.00 0.01 0.01 0.02 0.02 0.02 0.02 0.01 0.00 0.00 0.01 0.01 0.01
0.00 0.00 0.00 0.00 0.00 0.00 0.01 0.01 0.01 0.01 0.01 0.01 0.00 0.00 0.00 0.00 0.00 0.00 0.00 0.00 0.00 0.00 0.00 0.00 0.00 0.00 0.00 0.00 0.01 0.01 0.01 0.01 0.01 0.01 0.01 0.00 0.00 0.00
MSLP
1013.94 1014.12 1014.33 1014.56 1014.78 1014.97 1015.10 1015.17 1015.18 1015.14 1015.06 1014.98 1014.92 1014.92 1015.00 1015.15 1015.38 1015.68 1016.01 1016.37 1016.72 1017.06 1017.37 1017.66 1017.92 1018.16 1018.38 1018.60 1018.80 1018.97 1019.10 1019.19 1019.22 1019.20 1019.11 1018.97 1018.81 1018.63
1012.95 1013.13 1013.36 1013.61 1013.86 1014.09 1014.27 1014.40 1014.47 1014.50 1014.51 1014.52 1014.56 1014.67 1014.86 1015.12 1015.45 1015.82 1016.22 1016.63 1017.01 1017.36 1017.67 1017.95 1018.20 1018.43 1018.65 1018.86 1019.06 1019.23 1019.36 1019.44 1019.45 1019.40 1019.29 1019.12 1018.93 1018.72
1012.04 1012.19 1012.40 1012.64 1012.89 1013.13 1013.33 1013.49 1013.61 1013.70 1013.80 1013.92 1014.10 1014.35 1014.68 1015.08 1015.54 1016.03 1016.52 1016.99 1017.41 1017.77 1018.09 1018.35 1018.59 1018.80 1019.01 1019.22 1019.41 1019.58 1019.71 1019.79 1019.79 1019.72 1019.58 1019.39 1019.16 1018.92
1011.33 1011.43 1011.59 1011.78 1011.99 1012.20 1012.38 1012.54 1012.68 1012.82 1013.00 1013.23 1013.54 1013.94 1014.43 1015.00 1015.60 1016.22 1016.81 1017.35 1017.81 1018.19 1018.50 1018.75 1018.97 1019.18 1019.38 1019.58 1019.78 1019.96 1020.09 1020.16 1020.16 1020.08 1019.92 1019.70 1019.44 1019.17
1010.91 1010.95 1011.04 1011.17 1011.31 1011.45 1011.58 1011.70 1011.83 1011.99 1012.22 1012.53 1012.96 1013.50 1014.14 1014.85 1015.59 1016.33 1017.01 1017.61 1018.11 1018.51 1018.82 1019.06 1019.27 1019.47 1019.67 1019.88 1020.08 1020.27 1020.42 1020.50 1020.51 1020.42 1020.24 1020.00 1019.72 1019.43
1010.88 1010.85 1010.87 1010.92 1010.97 1011.02 1011.06 1011.12 1011.20 1011.34 1011.59 1011.95 1012.46 1013.10 1013.85 1014.67 1015.52 1016.34 1017.10 1017.74 1018.26 1018.67 1018.98 1019.21 1019.41 1019.61 1019.82 1020.04 1020.27 1020.48 1020.65 1020.75 1020.76 1020.67 1020.50 1020.24 1019.94 1019.63
1011.25 1011.17 1011.13 1011.09 1011.06 1011.00 1010.95 1010.91 1010.92 1011.01 1011.23 1011.60 1012.13 1012.82 1013.63 1014.52 1015.42 1016.29 1017.07 1017.74 1018.26 1018.66 1018.96 1019.19 1019.39 1019.58 1019.80 1020.04 1020.30 1020.54 1020.74 1020.86 1020.89 1020.81 1020.64 1020.38 1020.07 1019.75
1011.99 1011.89 1011.79 1011.70 1011.57 1011.43 1011.27 1011.14 1011.06 1011.08 1011.24 1011.58 1012.09 1012.77 1013.58 1014.47 1015.37 1016.23 1017.01 1017.65 1018.16 1018.53 1018.81 1019.02 1019.21 1019.41 1019.64 1019.90 1020.18 1020.45 1020.68 1020.83 1020.87 1020.81 1020.65 1020.40 1020.10 1019.78
1013.00 1012.90 1012.79 1012.65 1012.47 1012.25 1012.01 1011.79 1011.62 1011.56 1011.66 1011.92 1012.38 1013.00 1013.76 1014.59 1015.45 1016.25 1016.97 1017.56 1018.02 1018.35 1018.60 1018.79 1018.96 1019.16 1019.39 1019.67 1019.96 1020.25 1020.49 1020.66 1020.72 1020.68 1020.54 1020.30 1020.02 1019.72
1014.15 1014.07 1013.97 1013.83 1013.62 1013.36 1013.07 1012.78 1012.55 1012.42 1012.44 1012.63 1013.00 1013.55 1014.21 1014.96 1015.71 1016.43 1017.05 1017.56 1017.95 1018.22 1018.41 1018.57 1018.72 1018.90 1019.13 1019.39 1019.69 1019.97 1020.22 1020.39 1020.47 1020.44 1020.31 1020.11 1019.85 1019.59
1015.30 1015.27 1015.20 1015.07 1014.87 1014.60 1014.29 1013.98 1013.72 1013.54 1013.51 1013.63 1013.92 1014.36 1014.92 1015.55 1016.19 1016.79 1017.30 1017.71 1018.01 1018.21 1018.35 1018.46 1018.57 1018.72 1018.92 1019.16 1019.42 1019.69 1019.91 1020.08 1020.15 1020.13 1020.03 1019.86 1019.64 1019.42
1016.36 1016.37 1016.34 1016.24 1016.06 1015.82 1015.53 1015.23 1014.97 1014.78 1014.71 1014.79 1015.01 1015.37 1015.82 1016.33 1016.85 1017.33 1017.73 1018.04 1018.24 1018.37 1018.44 1018.50 1018.57 1018.67 1018.82 1019.01 1019.23 1019.45 1019.63 1019.77 1019.83 1019.81 1019.72 1019.59 1019.42 1019.26
1017.26 1017.30 1017.30 1017.24 1017.10 1016.90 1016.65 1016.39 1016.16 1016.00 1015.93 1015.98 1016.16 1016.45 1016.81 1017.22 1017.62 1017.99 1018.28 1018.50 1018.62 1018.68 1018.70 1018.70 1018.72 1018.77 1018.86 1018.99 1019.14 1019.30 1019.43 1019.51 1019.54 1019.52 1019.45 1019.35 1019.24 1019.14
1018.00 1018.05 1018.07 1018.03 1017.93 1017.78 1017.59 1017.39 1017.21 1017.08 1017.04 1017.09 1017.24 1017.48 1017.78 1018.10 1018.41 1018.69 1018.90 1019.03 1019.09 1019.10 1019.07 1019.03 1019.00 1019.00 1019.04 1019.10 1019.18 1019.26 1019.32 1019.35 1019.35 1019.31 1019.25 1019.18 1019.12 1019.07
1018.61 1018.65 1018.66 1018.63 1018.56 1018.45 1018.31 1018.17 1018.05 1017.98 1017.97 1018.03 1018.18 1018.38 1018.62 1018.88 1019.12 1019.33 1019.47 1019.56 1019.58 1019.55 1019.50 1019.43 1019.38 1019.34 1019.32 1019.32 1019.33 1019.33 1019.33 1019.30 1019.26 1019.20 1019.14 1019.10 1019.07 1019.09
1019.17 1019.17 1019.15 1019.12 1019.06 1018.97 1018.88 1018.79 1018.72 1018.68 1018.71 1018.78 1018.92 1019.09 1019.30 1019.50 1019.69 1019.84 1019.94 1020.00 1020.00 1019.97 1019.91 1019.84 1019.77 1019.71 1019.66 1019.62 1019.57 1019.52 1019.45 1019.37 1019.28 1019.20 1019.14 1019.11 1019.12 1019.16
1019.73 1019.67 1019.62 1019.57 1019.50 1019.43 1019.36 1019.30 1019.26 1019.25 1019.29 1019.37 1019.48 1019.62 1019.78 1019.94 1020.08 1020.19 1020.26 1020.30 1020.31 1020.29 1020.25 1020.20 1020.14 1020.08 1020.02 1019.95 1019.87 1019.77 1019.65 1019.53 1019.41 1019.30 1019.23 1019.20 1019.22 1019.28
1020.33 1020.24 1020.15 1020.07 1019.99 1019.92 1019.86 1019.81 1019.78 1019.77 1019.80 1019.85 1019.92 1020.02 1020.12 1020.22 1020.31 1020.39 1020.44 1020.47 1020.49 1020.49 1020.48 1020.46 1020.44 1020.40 1020.35 1020.27 1020.17 1020.05 1019.90 1019.75 1019.60 1019.47 1019.37 1019.33 1019.34 1019.40
1021.01 1020.89 1020.78 1020.69 1020.60 1020.53 1020.46 1020.41 1020.36 1020.33 1020.32 1020.32 1020.34 1020.37 1020.40 1020.43 1020.46 1020.49 1020.51 1020.54 1020.56 1020.59 1020.61 1020.63 1020.64 1020.64 1020.61 1020.55 1020.44 1020.31 1020.15 1019.97 1019.80 1019.64 1019.52 1019.45 1019.43 1019.46
1021.77 1021.65 1021.54 1021.45 1021.37 1021.29 1021.21 1021.14 1021.07 1021.01 1020.94 1020.87 1020.81 1020.74 1020.69 1020.63 1020.59 1020.56 1020.55 1020.55 1020.57 1020.61 1020.66 1020.72 1020.76 1020.79 1020.78 1020.73 1020.64 1020.51 1020.34 1020.15 1019.95 1019.77 1019.62 1019.51 1019.45 1019.44
1022.58 1022.48 1022.40 1022.33 1022.27 1022.20 1022.12 1022.03 1021.93 1021.81 1021.68 1021.53 1021.38 1021.21 1021.06 1020.91 1020.78 1020.68 1020.61 1020.57 1020.58 1020.61 1020.67 1020.74 1020.80 1020.85 1020.86 1020.82 1020.74 1020.61 1020.44 1020.23 1020.02 1019.81 1019.63 1019.48 1019.38 1019.31
1023.39 1023.35 1023.32 1023.29 1023.25 1023.20 1023.13 1023.03 1022.90 1022.73 1022.54 1022.31 1022.06 1021.80 1021.53 1021.29 1021.06 1020.88 1020.74 1020.65 1020.62 1020.63 1020.67 1020.73 1020.79 1020.83 1020.85 1020.82 1020.73 1020.60 1020.43 1020.22 1019.99 1019.76 1019.55 1019.36 1019.21 1019.08
1024.17 1024.20 1024.22 1024.24 1024.24 1024.22 1024.16 1024.06 1023.91 1023.71 1023.45 1023.16 1022.82 1022.47 1022.11 1021.77 1021.45 1021.18 1020.97 1020.82 1020.72 1020.68 1020.68 1020.71 1020.75 1020.77 1020.77 1020.73 1020.64 1020.50 1020.32 1020.11 1019.87 1019.63 1019.39 1019.17 1018.97 1018.79
Thickness
5742 5741 5740 5742 5741 5741 5739 5737 5731 5727 5731 5736 5737 5738 5736 5734 5732 5730 5728 5726 5724 5721 5719 5717 5714 5712 5711 5709 5707 5706 5704 5702 5701 5699 5698 5696 5694 5693
5739 5738 5737 5739 5739 5738 5737 5736 5733 5728 5726 5732 5732 5733 5731 5731 5727 5725 5724 5722 5719 5717 5715 5712 5710 5707 5705 5704 5702 5700 5699 5697 5696 5694 5693 5691 5689 5688
5737 5736 5735 5734 5734 5734 5733 5732 5730 5727 5723 5725 5727 5727 5724 5722 5721 5720 5719 5717 5716 5712 5709 5707 5704 5702 5699 5697 5695 5693 5692 5691 5689 5687 5686 5684 5683 5681
5733 5732 5731 5731 5729 5729 5728 5727 5726 5724 5720 5717 5718 5718 5716 5715 5713 5711 5711 5710 5708 5705 5702 5699 5697 5695 5692 5690 5688 5686 5684 5683 5681 5680 5678 5677 5676 5674
5729 5727 5726 5725 5723 5723 5722 5721 5720 5720 5717 5714 5712 5711 5709 5708 5706 5704 5702 5699 5699 5696 5694 5691 5688 5686 5683 5681 5679 5677 5675 5674 5672 5671 5669 5668 5667 5665
5723 5721 5720 5719 5718 5717 5716 5715 5714 5712 5710 5707 5705 5703 5701 5700 5697 5694 5692 5690 5688 5687 5684 5682 5679 5676 5674 5671 5669 5667 5665 5664 5662 5661 5659 5657 5656 5654
5716 5715 5713 5711 5710 5709 5709 5708 5706 5704 5702 5699 5697 5695 5692 5689 5687 5685 5682 5680 5678 5676 5674 5673 5671 5668 5665 5661 5658 5656 5655 5654 5652 5651 5649 5647 5645 5643
5709 5708 5706 5704 5702 5699 5698 5696 5695 5694 5693 5690 5687 5684 5681 5679 5677 5676 5673 5670 5668 5667 5665 5663 5661 5659 5656 5653 5649 5646 5644 5642 5641 5639 5638 5636 5633 5631
5701 5700 5700 5697 5695 5693 5690 5687 5684 5682 5681 5680 5678 5674 5672 5670 5667 5666 5662 5660 5657 5655 5654 5652 5651 5649 5645 5641 5638 5636 5634 5631 5629 5627 5626 5624 5622 5620
5693 5691 5689 5687 5686 5685 5682 5678 5675 5672 5671 5669 5666 5663 5661 5659 5658 5655 5652 5650 5648 5645 5643 5641 5640 5638 5636 5631 5627 5625 5622 5620 5618 5616 5614 5612 5611 5608
5684 5680 5679 5676 5672 5673 5673 5669 5665 5661 5657 5655 5652 5650 5648 5646 5645 5646 5644 5642 5639 5636 5632 5630 5629 5628 5626 5623 5618 5614 5612 5609 5607 5605 5602 5601 5599 5597
5674 5670 5665 5663 5661 5660 5661 5658 5654 5651 5649 5647 5643 5641 5639 5636 5633 5632 5632 5631 5629 5626 5621 5619 5618 5617 5615 5613 5609 5605 5602 5599 5596 5594 5591 5589 5587 5587
5666 5661 5654 5650 5649 5647 5647 5644 5640 5639 5639 5637 5634 5632 5629 5626 5623 5620 5618 5617 5615 5612 5609 5607 5607 5605 5603 5601 5598 5595 5592 5589 5587 5583 5580 5577 5574 5572
5655 5650 5642 5638 5636 5635 5634 5630 5629 5629 5630 5627 5624 5620 5617 5614 5611 5607 5604 5601 5599 5597 5594 5593 5593 5591 5590 5589 5587 5584 5581 5578 5575 5572 5569 5564 5562 5558
5640 5634 5630 5628 5627 5625 5621 5619 5620 5620 5618 5615 5611 5608 5604 5600 5598 5596 5593 5590 5588 5586 5583 5580 5580 5580 5579 5577 5575 5572 5569 5566 5563 5560 5557 5554 5551 5548
5631 5624 5622 5619 5618 5614 5612 5611 5609 5607 5605 5602 5599 5596 5593 5591 5589 5587 5585 5583 5581 5578 5573 5569 5567 5566 5566 5563 5561 5558 5556 5553 5550 5547 5544 5541 5538 5535
5623 5620 5617 5614 5610 5607 5604 5600 5598 5596 5593 5590 5587 5584 5582 5580 5577 5575 5572 5572 5570 5567 5565 5561 5557 5555 5552 5549 5548 5546 5544 5541 5539 5535 5532 5531 5528 5524
5614 5612 5607 5604 5600 5596 5593 5590 5586 5583 5580 5578 5575 5572 5570 5567 5565 5563 5561 5559 5557 5555 5552 5550 5547 5546 5544 5540 5532 5533 5532 5530 5528 5524 5523 5522 5519 5515
5604 5600 5596 5593 5589 5586 5583 5579 5575 5571 5567 5565 5563 5560 5557 5555 5553 5550 5548 5546 5544 5541 5539 5537 5535 5533 5532 5530 5524 5518 5518 5517 5516 5515 5513 5511 5509 5505
5594 5590 5585 5581 5578 5575 5572 5568 5564 5560 5556 5554 5550 5547 5545 5543 5540 5538 5535 5531 5530 5529 5527 5525 5522 5519 5517 5515 5514 5511 5505 5505 5504 5503 5502 5501 5498 5493
5583 5579 5575 5571 5568 5563 5560 5556 5553 5549 5545 5543 5539 5535 5533 5531 5528 5526 5523 5517 5516 5517 5516 5513 5508 5503 5504 5504 5504 5503 5498 5493 5491 5490 5490 5491 5491 5489
5572 5568 5564 5560 5556 5553 5549 5546 5543 5539 5535 5532 5529 5525 5522 5519 5517 5514 5513 5511 5509 5507 5505 5503 5500 5499 5498 5497 5496 5494 5492 5487 5484 5480 5478 5477 5477 5478
5561 5557 5553 5550 5546 5542 5539 5536 5532 5528 5524 5520 5517 5514 5511 5509 5506 5504 5502 5500 5499 5497 5496 5494 5493 5491 5491 5489 5488 5487 5484 5482 5480 5478 5475 5469 5466 5464